TimeMST,TemperatureF,Dew PointF,Humidity,Sea Level PressureIn,VisibilityMPH,Wind Direction,Wind SpeedMPH,Gust SpeedMPH,PrecipitationIn,Events,Conditions,WindDirDegrees,DateUTC
12:15 AM,89.6,62.6,40,29.81,10.0,NNW,3.5,-,N/A,,Clear,340,2013-07-13 07:15:00
12:35 AM,87.8,62.6,43,29.80,10.0,North,4.6,-,N/A,,Clear,350,2013-07-13 07:35:00
12:55 AM,87.8,62.6,43,29.80,10.0,NNW,3.5,-,N/A,,Clear,340,2013-07-13 07:55:00
1:15 AM,86.0,64.4,48,29.80,10.0,North,4.6,-,N/A,,Clear,350,2013-07-13 08:15:00
1:35 AM,86.0,64.4,48,29.80,10.0,North,4.6,-,N/A,,Clear,350,2013-07-13 08:35:00
1:55 AM,86.0,62.6,45,29.80,10.0,Calm,Calm,-,N/A,,Clear,0,2013-07-13 08:55:00
2:15 AM,86.0,60.8,43,29.80,10.0,Calm,Calm,-,N/A,,Clear,0,2013-07-13 09:15:00
2:35 AM,86.0,60.8,43,29.80,10.0,Calm,Calm,-,N/A,,Clear,0,2013-07-13 09:35:00
2:55 AM,86.0,59.0,40,29.80,10.0,Calm,Calm,-,N/A,,Clear,0,2013-07-13 09:55:00
3:15 AM,86.0,59.0,40,29.80,10.0,Calm,Calm,-,N/A,,Clear,0,2013-07-13 10:15:00
3:35 AM,86.0,62.6,45,29.81,10.0,North,6.9,-,N/A,,Clear,360,2013-07-13 10:35:00
3:55 AM,84.2,64.4,51,29.81,10.0,North,3.5,-,N/A,,Clear,360,2013-07-13 10:55:00
4:15 AM,84.2,64.4,51,29.82,10.0,Calm,Calm,-,N/A,,Clear,0,2013-07-13 11:15:00
4:35 AM,84.2,60.8,45,29.82,10.0,Calm,Calm,-,N/A,,Clear,0,2013-07-13 11:35:00
4:55 AM,84.2,64.4,51,29.83,10.0,Calm,Calm,-,N/A,,Clear,0,2013-07-13 11:55:00
5:15 AM,84.2,64.4,51,29.84,10.0,NNE,3.5,-,N/A,,Clear,20,2013-07-13 12:15:00
5:35 AM,84.2,62.6,48,29.84,10.0,NNE,3.5,-,N/A,,Clear,30,2013-07-13 12:35:00
5:55 AM,84.2,62.6,48,29.85,10.0,Calm,Calm,-,N/A,,Clear,0,2013-07-13 12:55:00
6:15 AM,82.4,64.4,54,29.85,10.0,Calm,Calm,-,N/A,,Clear,0,2013-07-13 13:15:00
6:35 AM,84.2,60.8,45,29.86,10.0,Calm,Calm,-,N/A,,Clear,0,2013-07-13 13:35:00
6:55 AM,86.0,60.8,43,29.86,10.0,Calm,Calm,-,N/A,,Clear,0,2013-07-13 13:55:00
7:15 AM,87.8,60.8,40,29.87,10.0,Calm,Calm,-,N/A,,Clear,0,2013-07-13 14:15:00
7:35 AM,87.8,60.8,40,29.88,10.0,Calm,Calm,-,N/A,,Clear,0,2013-07-13 14:35:00
7:55 AM,89.6,62.6,40,29.89,10.0,Calm,Calm,-,N/A,,Clear,0,2013-07-13 14:55:00
8:15 AM,89.6,59.0,36,29.89,10.0,WSW,4.6,-,N/A,,Scattered Clouds,240,2013-07-13 15:15:00
8:35 AM,91.4,59.0,34,29.89,10.0,SW,5.8,-,N/A,,Scattered Clouds,230,2013-07-13 15:35:00
8:55 AM,91.4,60.8,36,29.89,10.0,SW,4.6,-,N/A,,Partly Cloudy,220,2013-07-13 15:55:00
9:15 AM,93.2,60.8,34,29.89,10.0,SW,6.9,-,N/A,,Clear,230,2013-07-13 16:15:00
9:35 AM,93.2,60.8,34,29.89,10.0,SW,6.9,-,N/A,,Clear,220,2013-07-13 16:35:00
9:55 AM,93.2,60.8,34,29.88,10.0,SW,6.9,-,N/A,,Clear,230,2013-07-13 16:55:00
10:15 AM,95.0,62.6,34,29.88,10.0,SW,5.8,-,N/A,,Clear,230,2013-07-13 17:15:00
10:35 AM,95.0,62.6,34,29.88,10.0,SW,8.1,-,N/A,,Clear,230,2013-07-13 17:35:00
10:55 AM,96.8,60.8,30,29.87,10.0,SW,6.9,-,N/A,,Clear,220,2013-07-13 17:55:00
11:15 AM,98.6,60.8,29,29.87,10.0,SW,5.8,-,N/A,,Clear,230,2013-07-13 18:15:00
11:35 AM,102.2,57.2,22,29.86,10.0,SW,8.1,-,N/A,,Clear,220,2013-07-13 18:35:00
11:55 AM,102.2,55.4,21,29.86,10.0,SSW,11.5,-,N/A,,Clear,210,2013-07-13 18:55:00
12:15 PM,102.2,55.4,21,29.85,10.0,SW,10.4,17.3,N/A,,Clear,220,2013-07-13 19:15:00
12:35 PM,102.2,55.4,21,29.84,10.0,SSE,5.8,19.6,N/A,,Clear,160,2013-07-13 19:35:00
12:55 PM,102.2,55.4,21,29.83,10.0,SSW,9.2,21.9,N/A,,Clear,200,2013-07-13 19:55:00
1:15 PM,104.0,55.4,20,29.82,10.0,South,12.7,20.7,N/A,,Clear,180,2013-07-13 20:15:00
1:35 PM,104.0,55.4,20,29.82,10.0,WSW,12.7,-,N/A,,Clear,250,2013-07-13 20:35:00
1:55 PM,104.0,55.4,20,29.81,10.0,SW,12.7,18.4,N/A,,Clear,230,2013-07-13 20:55:00
2:15 PM,104.0,55.4,20,29.80,10.0,SW,12.7,19.6,N/A,,Clear,220,2013-07-13 21:15:00
2:35 PM,104.0,55.4,20,29.79,10.0,South,11.5,19.6,N/A,,Clear,180,2013-07-13 21:35:00
2:55 PM,104.0,53.6,19,29.78,10.0,SW,13.8,18.4,N/A,,Clear,220,2013-07-13 21:55:00
3:15 PM,105.8,53.6,18,29.78,10.0,SSW,10.4,-,N/A,,Clear,200,2013-07-13 22:15:00
3:35 PM,105.8,50.0,15,29.77,10.0,WSW,9.2,-,N/A,,Clear,250,2013-07-13 22:35:00
3:55 PM,107.6,50.0,15,29.75,10.0,South,11.5,17.3,N/A,,Clear,180,2013-07-13 22:55:00
4:15 PM,105.8,50.0,15,29.75,10.0,SW,4.6,-,N/A,,Clear,220,2013-07-13 23:15:00
4:35 PM,107.6,50.0,15,29.74,10.0,SW,9.2,-,N/A,,Clear,220,2013-07-13 23:35:00
4:55 PM,107.6,50.0,15,29.74,10.0,South,6.9,17.3,N/A,,Clear,190,2013-07-13 23:55:00
5:15 PM,107.6,50.0,15,29.73,10.0,South,9.2,-,N/A,,Clear,180,2013-07-14 00:15:00
5:35 PM,105.8,50.0,15,29.72,10.0,SE,8.1,-,N/A,,Clear,130,2013-07-14 00:35:00
5:55 PM,105.8,50.0,15,29.72,10.0,SSE,9.2,-,N/A,,Clear,150,2013-07-14 00:55:00
6:15 PM,105.8,50.0,15,29.72,10.0,SSW,6.9,-,N/A,,Clear,200,2013-07-14 01:15:00
6:35 PM,105.8,50.0,15,29.72,10.0,SW,6.9,-,N/A,,Clear,230,2013-07-14 01:35:00
6:55 PM,105.8,50.0,15,29.72,10.0,Calm,Calm,-,N/A,,Clear,0,2013-07-14 01:55:00
7:15 PM,104.0,50.0,16,29.72,10.0,SSE,4.6,-,N/A,,Clear,160,2013-07-14 02:15:00
7:35 PM,104.0,50.0,16,29.73,10.0,South,5.8,-,N/A,,Clear,170,2013-07-14 02:35:00
7:55 PM,104.0,50.0,16,29.73,10.0,South,5.8,-,N/A,,Clear,190,2013-07-14 02:55:00
8:15 PM,104.0,50.0,16,29.73,10.0,South,6.9,-,N/A,,Clear,170,2013-07-14 03:15:00
8:35 PM,104.0,50.0,16,29.73,10.0,SSE,5.8,-,N/A,,Clear,160,2013-07-14 03:35:00
8:55 PM,102.2,50.0,17,29.74,10.0,South,5.8,-,N/A,,Clear,170,2013-07-14 03:55:00
9:15 PM,102.2,50.0,17,29.75,10.0,South,5.8,-,N/A,,Clear,170,2013-07-14 04:15:00
9:35 PM,100.4,51.8,20,29.76,10.0,SW,3.5,-,N/A,,Clear,220,2013-07-14 04:35:00
9:55 PM,98.6,51.8,21,29.76,10.0,South,3.5,-,N/A,,Clear,190,2013-07-14 04:55:00
10:15 PM,98.6,53.6,22,29.77,10.0,Calm,Calm,-,N/A,,Clear,0,2013-07-14 05:15:00
10:35 PM,98.6,53.6,22,29.77,10.0,Calm,Calm,-,N/A,,Clear,0,2013-07-14 05:35:00
10:55 PM,98.6,53.6,22,29.78,10.0,Calm,Calm,-,N/A,,Clear,0,2013-07-14 05:55:00
11:15 PM,95.0,53.6,25,29.78,10.0,Calm,Calm,-,N/A,,Clear,0,2013-07-14 06:15:00
11:35 PM,98.6,53.6,22,29.78,10.0,South,4.6,-,N/A,,Clear,180,2013-07-14 06:35:00
11:55 PM,98.6,51.8,21,29.77,10.0,South,8.1,-,N/A,,Clear,170,2013-07-14 06:55:00